Saint John's, Antigua

12:28 AM AST on February 24, 2017 (GMT -0400)
V C Bird International

Weather History for TAPA - August, 2013

Change the Weather History Date:

Wednesday, August 14, 2013

  Actual Average Record
Temperature  
Mean Temperature 84 °F -  
Max Temperature 88 °F 86 °F 89 °F (1998)
Min Temperature 81 °F 77 °F 68 °F (1998)
Cooling Degree Days 20    
Growing Degree Days 34 (Base 50)    
Moisture  
Dew Point 75 °F    
Average Humidity 73    
Maximum Humidity 79    
Minimum Humidity 61    
Precipitation  
Precipitation 0.00 in - - ()
Sea Level Pressure  
Sea Level Pressure 29.99 in    
Wind  
Wind Speed 11 mph ()    
Max Wind Speed 15 mph    
Max Gust Speed -    
Visibility 8.3 miles    
Events      
Averages and records for this station are not official NWS values.
T = Trace of Precipitation, MM = Missing Value Source: Averaged Metar Reports

Daily Weather History Graph

Daily Weather History Graph

Search for Another Location

Airport or City:

Trip Planner

Search our weather history database for the weather conditions in past years. The results will help you decide how hot, cold, wet, or windy it might be!

Date:

Astronomy

Aug. 14, 2013 Rise Set
Actual Time 5:50 AM AST 6:33 PM AST
Civil Twilight 5:27 AM AST 6:55 PM AST
Nautical Twilight 5:01 AM AST 7:21 PM AST
Astronomical Twilight 4:34 AM AST 7:48 PM AST
Moon 12:30 PM AST (8/14) No Moon Set
Length of Visible Light 13h 27m
Length of Day
12h 42m
First Quarter, 52% of the Moon is Illuminated
Aug 14
First Quarter
Aug 20
Full
Aug 28
Last Quarter
Sep 5
New
Sep 12
First Quarter

Hourly Weather History & Observations

Time (AST) Temp. Heat Index Dew Point Humidity Pressure Visibility Wind Dir Wind Speed Gust Speed Precip Events Conditions
12:00 AM 82.4 °F 89.5 °F 75.2 °F 79% 30.01 in 6.2 mi East 11.5 mph - N/A   Scattered Clouds
1:00 AM 82.4 °F 89.5 °F 75.2 °F 79% 29.98 in 6.2 mi East 12.7 mph - N/A   Scattered Clouds
2:00 AM 81 °F - 74 °F 74% 29.98 in 17 mi East 11.5 mph - -   Widespread Dust
2:00 AM 80.6 °F 85.4 °F 73.4 °F 79% 29.98 in 6.2 mi East 11.5 mph - N/A   Scattered Clouds
3:00 AM 80.6 °F 85.4 °F 73.4 °F 79% 29.95 in 6.2 mi East 10.4 mph - N/A   Mostly Cloudy
4:00 AM 82.4 °F 89.5 °F 75.2 °F 79% 29.98 in 6.2 mi East 11.5 mph - N/A   Mostly Cloudy
5:00 AM 82 °F - 74 °F 72% 29.99 in 17 mi East 10.4 mph - -   Widespread Dust
5:00 AM 82.4 °F 89.5 °F 75.2 °F 79% 29.98 in 6.2 mi East 10.4 mph - N/A   Mostly Cloudy
6:00 AM 82.4 °F 88.2 °F 73.4 °F 74% 29.98 in 6.2 mi East 8.1 mph - N/A   Mostly Cloudy
7:00 AM 82.4 °F 88.2 °F 73.4 °F 74% 30.01 in 6.2 mi East 10.4 mph - N/A   Partly Cloudy
8:00 AM 83 °F - 74 °F 69% 30.01 in 15 mi East 10.4 mph - -   Widespread Dust
8:00 AM 82.4 °F 89.5 °F 75.2 °F 79% 30.01 in 6.2 mi East 10.4 mph - N/A   Mostly Cloudy
9:00 AM 84.2 °F 92.3 °F 75.2 °F 74% 30.01 in 6.2 mi East 15.0 mph - N/A   Partly Cloudy
10:00 AM 86.0 °F 99.3 °F 78.8 °F 79% 30.01 in 6.2 mi East 13.8 mph - N/A   Partly Cloudy
11:00 AM 87 °F - 76 °F 61% 30.02 in 15 mi East 13.8 mph - -   Widespread Dust
11:00 AM 86.0 °F 95.1 °F 75.2 °F 70% 30.01 in 6.2 mi East 13.8 mph - N/A   Partly Cloudy
12:00 PM 87.8 °F 97.6 °F 75.2 °F 66% 30.01 in 6.2 mi East 15.0 mph - N/A   Mostly Cloudy
1:00 PM 87.8 °F 97.6 °F 75.2 °F 66% 29.98 in 6.2 mi East 15.0 mph - N/A   Scattered Clouds
2:00 PM 87 °F - 76 °F 62% 29.99 in 14 mi East 15.0 mph - -   Widespread Dust
2:00 PM 87.8 °F 97.6 °F 75.2 °F 66% 29.98 in 6.2 mi East 15.0 mph - N/A   Scattered Clouds
3:00 PM 86.0 °F 95.1 °F 75.2 °F 70% 29.98 in 6.2 mi East 11.5 mph - N/A   Partly Cloudy
4:00 PM 86.0 °F 95.1 °F 75.2 °F 70% 29.95 in 6.2 mi East 11.5 mph - N/A   Scattered Clouds
5:00 PM 84.2 °F 92.3 °F 75.2 °F 74% 29.98 in 6.2 mi East 10.4 mph - N/A   Scattered Clouds
6:00 PM 82.4 °F 89.5 °F 75.2 °F 79% 29.98 in 6.2 mi ENE 11.5 mph - N/A   Scattered Clouds
7:00 PM 82.4 °F 89.5 °F 75.2 °F 79% 29.98 in 6.2 mi ENE 9.2 mph - N/A   Scattered Clouds
8:00 PM 82 °F - 74 °F 70% 30.01 in 14 mi ENE 11.5 mph - -   Widespread Dust
8:00 PM 82.4 °F 88.2 °F 73.4 °F 74% 30.01 in 6.2 mi ENE 11.5 mph - N/A   Partly Cloudy
9:00 PM 82.4 °F 88.2 °F 73.4 °F 74% 30.01 in 6.2 mi East 11.5 mph - N/A   Scattered Clouds
10:00 PM 82.4 °F 88.2 °F 73.4 °F 74% 30.01 in 6.2 mi East 10.4 mph - N/A   Scattered Clouds
11:00 PM 82 °F - 74 °F 69% 30.02 in 15 mi East 11.5 mph - -   Widespread Dust
11:00 PM 82.4 °F 88.2 °F 73.4 °F 74% 30.01 in 6.2 mi East 11.5 mph - N/A   Partly Cloudy